Wetbulb
72.57 75.55 76.67 76.88 76.88 76.55 75.97 75.39 75.20 75.95 76.22 76.82 76.85 77.10 77.15 76.97 76.97 76.68 76.43 76.55 76.70 76.78 75.73 75.48 75.23 75.03 75.13 74.99 74.71 74.78 74.86 75.08 74.51 74.84 74.79 74.80 74.46 74.26 73.72 72.80 72.05 71.21 72.07
73.99 75.45 77.50 77.38 77.06 76.33 75.75 75.45 75.25 75.37 76.09 76.12 75.80 76.12 76.22 76.30 76.10 76.17 76.22 76.65 76.83 76.24 75.39 75.25 74.57 74.57 74.38 73.86 73.75 74.35 74.54 74.92 75.19 74.67 74.13 74.45 74.39 74.10 74.12 73.35 72.04 71.50 71.67
74.62 76.17 76.49 77.32 77.11 76.38 76.05 75.70 75.32 75.27 75.69 75.85 75.75 75.75 75.75 75.80 75.45 75.90 76.22 76.53 76.81 75.64 74.87 74.77 74.42 74.18 73.63 73.33 72.85 73.23 74.16 74.54 74.92 74.64 73.96 72.66 72.90 74.18 74.13 73.47 72.39 72.11 71.78
74.55 75.87 75.63 77.43 77.23 76.43 75.90 75.60 75.62 75.35 75.50 75.67 75.77 75.70 75.37 75.37 75.47 75.22 75.92 76.50 76.45 75.52 75.33 75.22 74.74 74.34 73.91 73.33 72.77 72.54 72.51 73.42 74.21 74.54 73.89 73.16 72.90 73.77 73.98 73.90 73.14 72.46 72.10
74.22 75.57 75.44 77.32 77.07 76.50 75.97 75.67 75.76 75.37 75.42 75.62 75.52 75.60 75.37 75.45 75.69 75.89 75.92 76.15 75.59 75.52 75.16 74.86 74.53 74.08 73.72 73.27 72.95 72.58 72.02 71.64 71.90 72.07 71.01 70.65 71.31 73.17 74.78 74.49 73.94 73.31 72.65
73.99 74.82 76.31 77.14 77.05 76.47 75.98 75.77 75.57 75.19 75.32 75.57 75.67 75.35 75.47 75.74 76.06 76.24 76.39 76.37 75.67 75.12 75.02 74.53 73.81 72.90 72.36 71.89 71.72 71.98 71.86 72.03 72.02 70.13 69.60 68.94 68.98 69.77 72.37 75.43 74.65 74.47 74.05
72.92 74.43 76.03 77.11 76.94 76.72 76.08 75.92 75.67 75.64 75.34 75.51 75.69 75.57 75.57 75.76 75.95 76.12 76.19 76.20 75.80 75.34 74.59 73.78 72.78 72.95 72.57 72.36 72.29 72.70 72.47 71.97 70.43 69.24 68.92 68.89 68.15 69.71 71.13 74.59 75.92 75.47 75.10
72.92 74.24 75.73 76.82 76.81 76.61 76.35 76.29 76.23 75.66 75.53 75.69 75.64 75.54 75.49 75.58 75.75 75.98 75.93 75.45 75.15 74.80 74.44 73.92 73.50 73.48 73.48 73.38 73.23 73.45 73.18 72.87 71.21 69.75 69.31 68.78 68.46 70.34 71.29 73.52 76.35 75.67 75.62
73.93 73.91 74.69 75.01 75.86 76.59 76.33 76.25 76.01 75.69 75.37 75.59 75.47 75.52 75.57 75.43 75.54 75.64 75.69 75.35 75.19 75.12 75.02 74.89 74.69 74.51 74.53 74.18 73.94 74.21 73.87 73.95 72.72 70.88 70.14 70.05 70.02 71.24 72.11 73.31 76.15 76.15 75.70
71.73 72.88 73.67 75.09 74.47 74.32 74.78 76.08 75.94 75.61 75.39 75.18 75.38 75.43 75.40 75.25 75.05 75.05 74.62 74.76 74.86 75.22 75.20 75.09 74.57 74.35 74.28 74.18 74.30 74.62 74.69 74.80 72.76 71.79 71.38 70.94 71.65 72.38 73.26 74.03 74.19 74.61 75.85
69.97 70.00 71.48 73.08 73.80 73.95 73.93 74.67 75.52 75.35 75.58 75.36 75.41 75.23 74.48 73.57 73.82 73.88 74.17 73.87 74.38 75.07 75.06 74.84 74.35 73.93 74.04 74.11 73.91 74.07 74.27 72.63 72.09 71.97 71.54 71.72 72.90 73.54 74.00 74.74 74.87 74.72 75.47
67.78 69.32 70.61 71.44 71.84 72.63 74.37 73.58 73.66 73.55 73.95 74.29 74.50 74.25 73.25 72.44 72.12 73.05 73.50 74.00 73.91 74.50 74.90 74.57 74.31 74.29 74.29 72.94 72.51 72.67 71.38 70.27 70.10 70.37 70.62 72.91 73.45 73.77 74.92 75.25 75.17 75.12 75.07
67.75 69.42 69.90 70.76 71.19 71.51 71.90 72.63 73.32 73.24 73.42 73.07 73.19 72.83 72.04 71.66 70.90 71.94 70.80 71.22 72.31 72.76 72.57 72.48 71.95 71.60 71.99 72.33 71.80 69.41 66.26 66.03 66.84 67.21 67.15 70.99 71.96 72.33 72.99 73.63 74.73 75.29 75.17
67.19 68.49 69.62 70.17 69.91 70.25 70.79 72.00 72.15 72.49 72.26 71.52 71.79 71.44 70.50 69.40 68.81 69.18 69.45 69.48 69.55 70.75 71.34 71.87 70.93 71.04 71.48 70.86 66.09 62.99 62.75 63.75 63.76 63.94 64.26 69.01 70.24 69.92 69.28 71.66 73.13 73.87 74.67
67.43 68.10 68.96 69.45 69.16 69.57 69.95 70.97 70.88 71.18 71.00 70.65 70.38 70.37 69.98 68.58 67.75 68.44 68.99 69.61 70.06 70.54 70.32 70.65 70.94 68.99 63.80 62.12 62.41 62.55 62.07 63.07 63.32 62.44 62.51 66.06 68.36 68.23 68.57 70.08 71.60 73.00 73.56
67.90 68.18 68.91 69.06 69.20 69.16 69.19 69.23 69.35 70.01 70.18 69.95 69.33 69.64 70.18 68.38 68.02 69.78 69.42 69.60 70.21 70.05 70.44 70.18 68.53 62.28 60.74 61.57 62.09 62.49 62.52 62.54 61.83 61.93 61.88 62.66 65.03 65.92 68.02 68.01 68.86 70.47 71.76
68.04 69.17 68.85 69.12 69.59 68.89 69.56 69.21 68.80 68.72 69.82 69.19 69.19 69.70 70.00 70.58 70.42 69.97 69.80 68.90 67.57 68.86 65.90 64.49 62.14 61.34 61.18 60.32 60.13 60.32 60.70 60.81 60.27 61.14 61.62 62.42 60.83 62.31 65.92 66.50 67.76 68.15 68.66
69.09 69.02 70.12 71.96 70.62 69.84 70.43 70.33 70.70 70.23 70.28 69.78 70.09 70.45 71.03 70.09 69.16 68.44 68.65 63.73 64.63 64.62 64.53 62.96 61.68 60.48 58.77 57.92 57.85 58.39 58.85 58.56 58.49 60.30 60.84 59.62 58.99 61.76 62.38 64.33 65.79 66.45 67.52
68.87 70.16 70.28 71.34 71.74 71.16 70.81 71.27 71.00 71.09 70.61 69.85 69.65 69.35 69.06 70.24 68.63 67.36 64.79 64.04 62.83 61.98 61.88 62.31 58.87 59.32 57.84 57.44 57.69 58.32 57.13 57.32 57.81 59.18 58.36 58.67 60.19 60.68 60.76 62.14 64.11 64.27 66.40
64.61 65.14 65.96 67.24 68.16 69.47 70.12 69.76 69.24 68.86 68.56 68.36 68.70 67.21 67.28 68.41 65.58 63.54 63.34 62.77 61.70 59.36 59.02 58.53 57.82 57.69 57.65 56.45 56.64 55.92 56.56 56.88 58.00 57.53 57.25 58.32 59.71 59.89 60.44 60.98 60.91 61.54 64.99
60.68 61.54 62.44 63.49 63.77 65.88 66.24 67.17 66.17 65.42 66.96 64.97 65.20 66.48 65.23 65.10 64.08 62.39 61.09 60.49 59.72 58.18 57.70 58.12 57.32 56.69 56.26 56.66 55.26 55.24 55.39 56.12 56.04 57.54 57.90 58.06 58.95 59.59 60.36 60.84 60.61 61.39 63.61
58.06 58.78 59.53 60.02 60.70 62.27 63.73 64.45 64.71 64.18 63.03 62.89 63.08 63.77 63.95 63.71 63.06 61.76 60.22 58.43 57.78 57.46 57.84 57.70 57.09 55.83 55.91 56.17 54.49 52.75 50.59 53.31 54.85 57.35 56.94 57.82 58.58 58.70 59.01 60.36 60.49 61.29 63.90
55.26 55.91 56.49 57.03 58.06 59.30 61.29 62.60 62.26 61.93 61.69 61.31 61.31 60.85 62.07 62.70 61.74 61.08 59.32 58.32 58.20 58.87 58.35 57.33 56.67 56.10 54.18 55.08 55.62 54.25 49.71 49.13 52.38 55.47 57.05 57.26 57.94 57.60 58.70 59.67 60.26 61.14 61.85
51.33 52.34 52.85 53.09 54.19 57.24 58.10 58.52 58.60 58.74 59.13 59.57 59.53 60.08 60.22 60.83 60.96 60.59 59.95 59.11 58.94 58.03 56.99 56.03 56.07 55.89 55.62 53.72 54.58 56.33 56.33 55.25 52.05 50.71 54.74 55.67 56.63 57.02 58.41 58.45 59.46 60.90 60.22
49.98 49.98 50.93 52.25 52.57 52.73 53.97 55.13 55.57 56.84 58.14 59.25 59.39 59.14 58.93 59.71 60.31 60.61 59.59 58.57 58.01 57.97 57.79 57.37 56.45 55.58 56.06 55.32 54.11 54.05 54.01 54.22 54.50 52.33 49.94 52.21 55.29 57.10 58.42 58.75 58.89 59.91 59.24
48.56 48.56 48.80 48.53 49.31 51.23 52.08 52.40 52.43 53.65 53.97 54.83 56.71 57.20 57.63 57.94 58.40 59.12 59.07 58.44 58.37 57.76 57.10 56.68 56.84 56.15 55.23 54.66 54.44 53.94 53.41 53.11 52.89 52.65 51.20 51.61 52.40 55.36 58.36 58.96 58.65 57.58 57.85
MSLP
1010.22 1010.34 1010.51 1010.81 1011.08 1011.41 1011.13 1011.09 1011.37 1011.68 1011.92 1012.10 1012.42 1012.75 1013.10 1013.45 1013.79 1014.08 1014.25 1014.34 1014.40 1014.45 1014.55 1014.70 1014.83 1014.95 1014.99 1015.06 1015.17 1015.25 1015.36 1015.40 1015.45 1015.54 1015.58 1015.59 1015.64 1015.76 1015.86 1015.95 1016.06 1016.16 1016.08
1009.75 1010.26 1010.64 1010.73 1011.15 1011.39 1011.46 1011.46 1011.62 1011.97 1012.19 1012.48 1012.82 1013.16 1013.56 1013.87 1014.15 1014.38 1014.52 1014.53 1014.53 1014.58 1014.65 1014.80 1014.98 1015.11 1015.21 1015.28 1015.33 1015.37 1015.43 1015.52 1015.56 1015.67 1015.76 1015.80 1015.82 1015.86 1015.93 1016.00 1016.17 1016.30 1016.33
1009.79 1010.14 1010.83 1011.06 1011.34 1011.52 1011.62 1011.78 1012.00 1012.29 1012.57 1012.86 1013.13 1013.44 1013.78 1014.12 1014.40 1014.60 1014.80 1014.95 1014.97 1014.98 1014.99 1015.07 1015.26 1015.42 1015.53 1015.60 1015.70 1015.77 1015.77 1015.73 1015.74 1015.73 1015.81 1015.90 1015.92 1015.97 1015.93 1016.05 1016.19 1016.25 1016.32
1009.90 1010.23 1010.69 1011.17 1011.48 1011.72 1011.83 1012.02 1012.24 1012.41 1012.75 1013.05 1013.29 1013.60 1013.89 1014.22 1014.50 1014.77 1014.96 1015.10 1015.20 1015.25 1015.29 1015.37 1015.51 1015.68 1015.78 1015.86 1015.91 1015.94 1015.96 1015.93 1015.89 1015.89 1015.89 1015.86 1015.80 1015.89 1015.97 1015.99 1016.06 1016.18 1016.29
1010.25 1010.47 1010.63 1011.03 1011.47 1011.69 1011.85 1012.07 1012.34 1012.66 1012.88 1013.21 1013.46 1013.68 1014.03 1014.37 1014.61 1014.90 1015.11 1015.25 1015.37 1015.44 1015.47 1015.52 1015.60 1015.70 1015.78 1015.88 1015.97 1016.02 1016.04 1016.03 1016.03 1016.01 1016.01 1015.96 1015.95 1015.82 1015.83 1015.89 1015.94 1015.99 1016.13
1010.51 1010.62 1010.95 1011.25 1011.52 1011.79 1011.94 1012.19 1012.43 1012.75 1012.97 1013.10 1013.44 1013.67 1013.98 1014.39 1014.63 1014.87 1015.12 1015.23 1015.36 1015.49 1015.57 1015.61 1015.67 1015.74 1015.85 1015.97 1016.01 1016.07 1016.10 1016.14 1016.14 1016.22 1016.19 1016.05 1015.94 1015.88 1015.81 1015.72 1015.66 1015.76 1015.89
1010.67 1010.83 1011.20 1011.25 1011.70 1011.97 1012.19 1012.38 1012.57 1012.84 1013.12 1013.33 1013.44 1013.65 1013.96 1014.36 1014.65 1014.79 1014.98 1015.13 1015.33 1015.53 1015.60 1015.69 1015.79 1015.88 1015.94 1016.01 1016.11 1016.13 1016.13 1016.09 1016.10 1016.13 1016.02 1015.88 1015.75 1015.67 1015.56 1015.31 1015.29 1015.39 1015.57
1011.10 1011.16 1011.50 1011.73 1011.96 1012.13 1012.31 1012.65 1012.98 1013.19 1013.32 1013.44 1013.65 1013.81 1013.94 1014.31 1014.73 1014.88 1015.06 1015.24 1015.41 1015.53 1015.62 1015.71 1015.81 1015.92 1015.99 1016.01 1016.03 1016.06 1016.06 1016.00 1015.96 1016.02 1015.93 1015.78 1015.61 1015.42 1015.21 1015.06 1014.99 1015.07 1015.20
1011.70 1011.96 1012.07 1012.42 1012.51 1012.59 1012.80 1013.02 1013.39 1013.52 1013.62 1013.75 1013.92 1014.00 1014.16 1014.37 1014.66 1015.03 1015.18 1015.30 1015.39 1015.53 1015.61 1015.74 1015.84 1015.90 1015.88 1015.90 1015.91 1015.95 1015.99 1015.94 1015.81 1015.79 1015.69 1015.60 1015.55 1015.39 1015.17 1014.99 1014.78 1014.71 1014.78
1012.05 1012.50 1012.66 1012.68 1013.01 1013.30 1013.29 1013.22 1013.39 1013.63 1013.79 1013.99 1014.14 1014.25 1014.38 1014.51 1014.78 1015.02 1015.17 1015.28 1015.34 1015.46 1015.54 1015.61 1015.67 1015.66 1015.66 1015.72 1015.71 1015.67 1015.64 1015.57 1015.62 1015.54 1015.40 1015.27 1015.04 1014.91 1014.87 1014.69 1014.61 1014.57 1014.48
1012.15 1012.59 1012.87 1012.96 1013.02 1013.12 1013.30 1013.52 1013.72 1013.88 1014.17 1014.24 1014.33 1014.49 1014.60 1014.81 1014.91 1015.01 1015.15 1015.24 1015.35 1015.36 1015.44 1015.49 1015.51 1015.54 1015.55 1015.50 1015.48 1015.36 1015.29 1015.32 1015.32 1015.23 1015.18 1015.06 1014.98 1014.76 1014.49 1014.29 1014.16 1013.97 1013.78
1012.04 1012.35 1012.57 1012.61 1012.88 1013.03 1013.16 1013.45 1013.64 1013.87 1014.13 1014.42 1014.60 1014.71 1014.82 1014.92 1015.03 1015.17 1015.25 1015.22 1015.23 1015.33 1015.41 1015.43 1015.43 1015.42 1015.42 1015.45 1015.38 1015.29 1015.21 1015.15 1015.06 1015.00 1014.88 1014.78 1014.62 1014.37 1014.07 1014.00 1013.73 1013.34 1013.35
1011.32 1011.87 1012.29 1012.79 1013.15 1013.34 1013.40 1013.63 1013.87 1013.97 1014.20 1014.38 1014.60 1014.80 1014.94 1015.03 1015.17 1015.21 1015.29 1015.31 1015.27 1015.23 1015.25 1015.22 1015.33 1015.38 1015.35 1015.39 1015.37 1015.35 1015.19 1015.12 1015.13 1014.97 1014.85 1014.62 1014.58 1014.37 1014.01 1013.62 1013.36 1013.20 1012.97
1011.05 1012.08 1012.54 1012.79 1012.77 1012.77 1012.99 1013.48 1014.15 1013.93 1013.95 1014.15 1014.46 1014.73 1014.86 1015.07 1015.21 1015.27 1015.19 1015.15 1015.15 1015.09 1015.03 1015.14 1015.13 1015.26 1015.24 1015.22 1015.31 1015.30 1015.25 1015.19 1015.16 1015.05 1014.91 1014.59 1014.47 1014.34 1014.04 1013.68 1013.33 1013.01 1012.74
1011.11 1012.03 1012.42 1012.90 1013.00 1013.19 1013.40 1013.58 1013.91 1013.67 1013.69 1013.85 1014.12 1014.51 1014.76 1015.01 1015.19 1015.02 1015.03 1015.04 1015.03 1015.00 1015.16 1015.24 1015.13 1015.22 1015.45 1015.45 1015.49 1015.43 1015.38 1015.31 1015.21 1015.03 1014.98 1014.63 1014.46 1014.26 1014.02 1013.68 1013.35 1013.03 1012.79
1010.78 1011.31 1011.96 1012.45 1012.91 1012.95 1013.65 1013.46 1013.80 1013.62 1013.52 1014.00 1014.36 1014.47 1014.48 1014.60 1014.84 1014.97 1014.99 1015.01 1015.05 1014.95 1015.25 1015.01 1015.11 1015.42 1015.71 1015.65 1015.65 1015.54 1015.48 1015.41 1015.26 1015.03 1014.88 1014.57 1014.44 1014.22 1013.86 1013.60 1013.28 1012.95 1012.73
1010.18 1011.12 1011.68 1012.44 1012.86 1013.28 1013.37 1013.40 1013.62 1013.77 1013.74 1013.95 1014.10 1014.24 1014.55 1014.42 1014.69 1014.83 1014.97 1015.20 1014.97 1015.04 1015.37 1015.45 1015.51 1015.64 1015.91 1015.86 1015.68 1015.53 1015.55 1015.40 1015.14 1015.00 1014.73 1014.58 1014.43 1014.19 1013.79 1013.51 1013.20 1012.95 1012.65
1010.44 1010.90 1011.66 1012.42 1012.59 1013.02 1013.32 1013.73 1013.65 1013.61 1013.77 1013.87 1014.13 1014.38 1014.49 1014.55 1014.67 1014.79 1015.13 1015.19 1015.27 1015.34 1015.44 1015.70 1015.95 1016.11 1016.13 1015.99 1015.75 1015.52 1015.55 1015.37 1015.18 1014.86 1014.79 1014.57 1014.56 1014.24 1013.85 1013.61 1013.27 1012.93 1012.52
1011.86 1011.35 1011.65 1012.26 1012.69 1013.15 1013.70 1013.53 1013.48 1013.59 1013.86 1014.27 1014.26 1014.48 1014.58 1014.52 1014.71 1014.74 1015.48 1015.59 1015.48 1015.64 1015.68 1016.00 1016.24 1016.26 1016.39 1016.07 1015.60 1015.47 1015.39 1015.28 1015.17 1014.99 1014.90 1014.65 1014.27 1013.97 1013.99 1013.56 1013.25 1012.95 1012.60
1012.81 1012.85 1013.26 1013.38 1013.52 1013.40 1013.71 1013.80 1013.96 1014.10 1014.27 1014.38 1014.25 1014.49 1014.66 1014.53 1014.81 1015.16 1015.28 1015.78 1015.83 1015.92 1016.24 1016.42 1016.62 1016.69 1016.73 1016.26 1015.70 1015.48 1015.43 1015.28 1015.27 1015.35 1015.15 1014.73 1014.37 1014.00 1013.71 1013.46 1013.38 1013.01 1012.61
1013.84 1014.08 1014.45 1014.16 1014.57 1014.19 1014.36 1014.47 1014.44 1014.68 1014.76 1014.93 1014.75 1014.42 1014.47 1014.66 1014.90 1015.07 1015.24 1015.67 1015.84 1016.31 1016.79 1016.68 1016.98 1017.03 1016.86 1016.48 1016.11 1015.67 1015.62 1015.61 1015.65 1015.41 1015.06 1014.83 1014.34 1013.89 1013.51 1013.33 1013.28 1013.00 1012.58
1015.33 1015.45 1015.60 1015.82 1015.78 1015.51 1015.34 1015.27 1015.09 1015.44 1015.60 1015.52 1015.32 1014.94 1014.83 1014.74 1014.73 1014.88 1015.11 1015.73 1016.03 1016.41 1016.64 1016.73 1017.26 1017.23 1017.13 1016.98 1017.04 1017.24 1016.98 1016.17 1015.60 1015.17 1014.90 1014.63 1014.31 1014.05 1013.48 1013.05 1013.07 1012.78 1012.64
1016.85 1016.81 1016.78 1016.63 1016.43 1016.32 1016.23 1015.96 1015.67 1015.53 1015.89 1016.12 1015.94 1015.87 1015.45 1015.16 1014.96 1015.05 1015.19 1015.22 1015.55 1016.02 1016.39 1016.66 1017.07 1017.42 1017.41 1017.16 1016.86 1017.21 1017.27 1016.86 1016.27 1015.08 1014.63 1014.51 1014.38 1014.16 1013.39 1012.86 1012.59 1012.73 1012.41
1019.01 1018.42 1018.05 1017.92 1017.68 1017.57 1017.28 1016.77 1016.36 1015.95 1016.02 1016.16 1016.14 1016.09 1015.92 1015.69 1015.39 1014.91 1014.89 1015.15 1015.31 1015.22 1015.21 1015.56 1015.62 1016.27 1016.08 1016.87 1016.61 1017.13 1016.88 1017.05 1016.68 1015.84 1014.99 1014.61 1014.44 1013.86 1013.15 1012.51 1012.13 1012.44 1012.14
1020.25 1019.98 1019.83 1019.45 1019.02 1018.97 1018.42 1017.99 1018.00 1016.94 1016.56 1016.40 1016.02 1015.67 1015.44 1015.20 1015.17 1015.19 1015.05 1014.96 1015.14 1015.33 1015.47 1015.48 1015.68 1015.55 1015.76 1015.99 1016.34 1016.83 1016.75 1016.82 1016.60 1016.38 1014.87 1014.33 1013.90 1013.33 1012.65 1012.38 1012.24 1012.02 1012.04
1021.14 1021.02 1020.77 1020.35 1019.96 1019.59 1019.41 1019.16 1018.91 1017.98 1017.44 1017.29 1017.07 1016.54 1015.98 1015.44 1015.20 1015.15 1015.15 1015.00 1014.97 1015.06 1015.49 1015.20 1015.11 1015.17 1015.42 1015.66 1015.98 1016.18 1016.46 1016.56 1016.15 1015.96 1015.23 1014.36 1013.73 1012.58 1012.24 1011.88 1011.75 1011.88 1012.01
Wind_Speed
4 6 15 14 12 12 17 19 18 17 16 16 16 16 16 15 15 15 15 14 13 12 11 10 9 9 10 10 10 10 9 9 10 9 9 9 9 8 6 6 6 4 7
10 7 12 13 12 13 15 18 18 17 15 15 16 15 14 13 13 12 12 12 11 11 11 10 9 9 8 8 9 9 9 8 8 8 7 7 7 7 7 6 6 4 5
11 8 8 11 12 13 15 17 17 16 15 15 14 14 13 12 12 11 10 8 8 9 9 8 8 7 7 7 7 6 6 6 6 6 6 3 4 5 3 6 6 6 5
10 8 8 12 12 13 15 16 16 16 16 15 15 14 14 12 11 11 9 7 7 7 7 7 6 6 6 5 5 4 3 3 3 3 2 3 3 7 6 7 7 7 7
8 8 9 13 13 15 16 16 15 15 15 15 14 14 13 11 10 9 7 6 6 6 5 5 5 4 4 4 4 3 2 0 1 1 1 3 3 2 7 8 8 9 9
9 7 9 12 13 14 16 16 15 15 15 15 15 14 13 12 10 9 8 7 6 6 5 4 3 2 2 3 3 3 2 3 3 3 3 4 4 6 7 10 11 11 11
9 9 7 14 13 13 15 15 14 14 14 13 14 14 13 11 9 9 7 7 6 5 4 2 1 2 3 4 5 4 4 4 2 2 3 4 4 7 9 10 14 12 12
7 9 7 11 11 12 13 12 12 12 12 12 12 12 12 11 9 7 7 5 4 4 3 2 1 2 4 5 5 5 5 6 3 4 5 5 8 9 9 8 11 13 13
5 5 5 3 6 9 9 10 10 10 10 10 10 10 10 10 9 7 6 5 4 3 2 1 2 3 4 5 6 7 8 9 5 4 5 4 9 12 13 10 10 14 15
4 4 4 4 4 3 2 8 10 9 9 8 8 8 8 9 8 7 7 6 5 4 3 3 3 4 4 5 6 7 9 9 5 5 4 5 10 11 12 11 11 13 16
4 4 4 5 5 6 3 4 6 9 7 6 6 6 5 2 4 5 6 7 6 6 5 5 5 5 5 5 6 7 8 3 5 4 4 8 8 11 12 12 12 13 14
7 5 6 6 6 5 4 4 4 4 3 2 2 2 2 3 3 3 5 7 7 7 6 6 6 6 5 2 2 4 2 3 3 4 4 11 12 13 12 12 12 13 13
10 7 8 4 3 4 3 3 2 1 3 3 4 2 2 1 2 2 2 2 2 4 3 3 2 2 3 1 2 2 3 3 3 3 6 11 12 14 14 13 13 12 10
12 10 5 6 6 6 3 3 2 2 3 2 2 4 2 2 2 3 2 3 3 2 3 2 1 2 1 2 3 3 4 3 3 3 5 11 11 13 15 13 13 12 12
11 10 8 7 5 3 3 2 3 3 3 4 4 4 3 3 3 3 3 3 3 2 2 3 2 1 3 4 3 4 4 4 5 3 3 11 11 14 16 15 16 14 13
9 12 9 8 6 4 3 4 4 3 3 1 2 4 6 4 4 3 3 3 3 3 3 1 2 3 3 3 3 4 4 4 4 4 4 4 12 13 13 16 17 16 15
7 10 11 8 6 5 4 4 3 3 3 3 4 4 5 4 3 2 2 2 1 1 2 2 4 3 3 3 3 4 3 4 4 4 4 4 6 10 15 17 17 17 17
7 9 8 5 5 4 4 3 3 3 3 4 3 2 1 2 3 1 2 3 2 3 2 3 2 3 3 3 2 3 4 4 5 4 5 5 5 6 9 16 17 17 17
8 10 10 7 6 6 3 2 2 2 1 3 1 2 3 1 1 2 2 2 3 3 3 2 3 2 3 4 4 2 4 4 5 5 7 6 7 6 6 12 17 16 15
11 11 8 5 5 5 3 3 2 2 2 2 1 2 2 3 5 5 4 4 3 4 4 3 4 4 2 3 4 5 4 4 3 5 5 5 5 7 7 8 7 9 15
15 14 12 11 8 5 4 3 3 2 2 3 2 4 4 5 6 6 5 5 5 5 3 4 2 4 6 5 3 4 3 3 2 5 4 4 8 9 9 8 6 6 5
13 12 12 10 8 6 3 2 2 2 2 2 2 2 3 5 6 6 7 5 5 4 5 5 3 1 1 4 2 1 4 4 3 5 3 3 8 7 10 10 9 7 5
17 15 14 13 13 10 6 2 3 4 3 3 3 3 3 2 4 6 7 7 7 5 4 4 3 2 1 1 2 2 0 4 4 3 4 3 7 7 7 8 9 7 6
15 15 16 15 14 11 11 7 6 2 2 1 1 1 3 3 1 5 8 6 6 5 7 5 6 5 5 2 2 3 2 4 3 5 2 5 4 8 8 7 7 6 5
15 14 13 13 15 14 13 11 7 6 2 1 1 1 3 2 4 4 5 6 5 3 3 5 6 5 3 2 2 1 2 3 6 6 8 5 6 6 7 7 5 4 5
13 13 12 13 12 14 12 11 10 9 9 7 7 4 4 2 2 3 3 4 5 5 6 4 3 4 4 3 3 3 3 3 3 4 5 9 10 7 4 7 2 2 4
Wind_Direction
165 161 156 150 138 132 121 119 118 116 113 112 115 118 120 125 129 134 138 138 139 139 136 133 131 129 129 125 120 116 118 123 124 130 135 134 135 136 134 131 132 144 143
128 144 155 146 143 134 123 121 120 119 117 117 118 116 116 122 129 135 141 143 145 143 138 133 129 127 129 125 124 126 130 135 136 140 140 142 147 156 167 151 150 162 155
129 132 144 144 145 135 127 123 122 121 120 120 118 118 121 128 135 137 138 141 142 136 125 119 118 113 109 113 117 121 128 136 141 149 151 163 167 169 147 149 159 166 172
127 137 139 149 145 138 130 126 126 130 129 128 126 127 130 132 136 138 134 136 140 131 120 113 104 97 97 100 111 122 134 148 161 178 173 218 238 177 175 182 177 182 193
125 147 149 153 151 145 138 133 133 134 134 134 134 135 134 134 133 132 130 127 133 130 126 118 105 105 109 106 104 114 129 216 286 334 286 286 296 260 205 202 200 197 199
141 143 168 157 155 151 146 143 142 143 144 144 145 142 142 143 140 135 141 147 149 147 140 134 131 111 66 50 45 35 22 346 347 337 323 312 311 295 289 245 214 211 203
147 153 169 160 161 156 153 152 152 151 150 152 152 151 151 153 151 151 150 144 149 150 148 142 110 34 17 12 7 4 356 342 352 313 296 289 286 284 288 301 223 213 210
123 156 166 167 164 160 158 158 157 155 156 158 159 160 160 162 169 165 164 162 161 167 172 173 75 3 352 348 341 337 334 327 331 300 294 287 280 278 284 288 227 224 219
65 149 162 132 167 162 159 156 160 161 163 164 166 166 166 171 177 184 187 194 190 197 225 284 341 337 331 323 327 328 329 327 323 305 297 293 290 294 297 285 244 229 229
89 77 164 131 75 65 136 166 169 171 169 170 173 173 172 176 182 192 201 214 215 221 241 268 289 290 294 312 320 319 322 323 317 306 298 292 285 290 292 286 273 260 246
139 108 89 136 166 176 146 182 178 178 176 174 181 185 180 172 195 204 206 218 230 233 241 252 266 283 296 315 323 322 337 332 329 331 329 308 299 304 301 286 273 262 250
180 165 168 168 177 170 168 169 163 173 152 171 190 207 186 200 210 213 231 231 231 240 253 264 279 294 304 296 306 332 354 2 16 0 349 338 337 344 341 330 307 269 262
171 178 195 165 144 165 163 163 177 131 182 196 211 212 225 233 246 239 243 259 258 254 247 259 306 324 309 310 352 15 23 28 27 22 360 356 352 353 351 343 333 327 287
176 177 157 163 192 192 179 158 157 175 178 183 203 208 198 219 241 251 238 234 234 228 244 244 242 316 355 56 54 42 30 26 15 5 358 356 353 351 345 338 334 326 321
175 158 175 185 210 218 186 136 192 188 180 197 195 214 196 213 232 232 248 250 238 255 273 268 271 63 66 47 41 25 23 15 360 352 346 359 358 349 355 350 350 339 339
157 157 164 185 197 182 190 159 203 204 203 222 234 228 211 200 221 244 272 264 269 245 250 213 155 101 61 34 19 11 9 358 345 342 351 2 3 353 353 349 349 351 346
134 142 168 169 185 188 183 196 201 214 181 217 224 225 236 216 232 201 204 274 20 48 75 55 66 64 54 13 11 353 353 345 338 349 356 8 353 346 353 350 350 348 342
115 132 127 163 157 153 181 197 198 200 210 222 227 279 274 156 185 130 44 64 52 76 119 81 60 65 51 17 345 350 343 336 357 9 14 355 358 356 349 346 343 343 342
64 83 95 107 127 139 151 176 194 175 237 313 324 66 348 352 139 102 70 54 68 78 63 71 53 92 23 353 346 328 343 2 15 16 352 349 6 359 342 343 346 342 340
50 54 56 77 56 85 85 75 57 58 47 29 52 113 129 112 100 109 106 77 68 63 48 44 57 46 26 351 351 347 348 11 36 356 334 343 8 352 351 341 336 334 342
47 45 33 42 11 27 40 36 34 13 35 31 13 99 107 115 120 117 98 86 76 77 63 49 70 33 18 1 2 344 357 350 294 338 351 1 2 356 346 338 331 331 335
49 47 41 36 21 23 7 28 84 77 49 38 346 79 118 128 128 123 117 107 98 99 74 57 31 131 41 22 92 78 346 329 308 336 308 329 352 336 333 330 327 333 351
27 23 23 17 17 16 16 19 46 81 52 24 1 355 352 87 125 116 117 131 137 151 131 129 104 55 24 288 67 130 274 247 323 304 316 308 335 320 309 313 320 329 328
26 28 26 20 18 10 4 10 17 60 118 201 228 290 333 350 78 143 150 153 156 165 161 168 160 178 150 195 123 215 209 230 260 304 269 286 296 297 298 304 309 310 327
27 30 24 25 27 14 13 16 350 5 13 268 262 200 201 205 226 186 170 167 172 188 175 170 176 165 167 145 147 195 255 262 250 251 297 284 288 268 281 293 299 312 330
26 23 21 20 19 13 9 8 9 16 356 351 331 306 289 293 273 246 218 196 193 187 204 194 174 161 160 173 182 184 208 247 263 255 275 294 282 286 284 285 261 295 316